Вернуться в каталог

STARLINK-37717

АктивенСвязьSSO
NORAD 100226·PAYLOAD·🇺🇸 United States

Запущен Aug 4, 2026 с Vandenberg Space Force Base

Loading…

Ближайшие Пролёты (ближайшие 24 часа)

TLE

СвежийSource: Space-Track

Эпоха: Sep 14, 2026, 14:46 UTC

1 A0226U 26177P   26257.61558460  .00035399  00000-0  64919-3 0  9991
2 A0226  97.2838 308.4195 0000804 128.3648 231.7676 15.49207753  7588

Отслеживайте STARLINK-37717 в реальном времени с AllMySat

Download on the App Store